Time,TemperatureF,DewpointF,PressureIn,WindDirection,WindDirectionDegrees,WindSpeedMPH,WindSpeedGustMPH,Humidity,HourlyPrecipIn,Conditions,Clouds,dailyrainin,SoftwareType,DateUTC
2013-01-23 00:04:00,39.2,38.1,-100.00,ENE,67,0.0,0.0,95,0.00,,,0.00,,2013-01-23 06:04:00,
2013-01-23 00:09:00,39.2,37.9,-100.00,ENE,67,0.0,0.0,95,0.00,,,0.00,,2013-01-23 06:09:00,
2013-01-23 00:14:00,39.3,38.0,-100.00,ENE,67,0.0,0.0,95,0.00,,,0.00,,2013-01-23 06:14:00,
2013-01-23 00:19:00,39.2,37.9,-100.00,ENE,67,0.0,0.0,95,0.00,,,0.00,,2013-01-23 06:19:00,
2013-01-23 00:24:00,39.1,38.1,-100.00,ENE,67,0.0,0.0,96,0.00,,,0.00,,2013-01-23 06:24:00,
2013-01-23 00:29:00,39.2,37.9,-100.00,ENE,67,0.0,0.0,95,0.00,,,0.00,,2013-01-23 06:29:00,
2013-01-23 00:34:00,39.3,38.0,-100.00,ENE,67,0.0,0.0,95,0.00,,,0.00,,2013-01-23 06:34:00,
2013-01-23 00:39:00,39.2,37.9,-100.00,ENE,67,0.0,0.0,95,0.00,,,0.00,,2013-01-23 06:39:00,
2013-01-23 00:44:00,39.2,37.8,-100.00,ENE,67,0.0,0.0,94,0.00,,,0.00,,2013-01-23 06:44:00,
2013-01-23 00:49:00,39.1,37.9,-100.00,ENE,67,0.0,0.0,95,0.00,,,0.00,,2013-01-23 06:49:00,
2013-01-23 00:54:00,39.1,37.9,-100.00,ENE,67,0.0,0.0,95,0.00,,,0.00,,2013-01-23 06:54:00,
2013-01-23 00:59:00,38.9,37.6,-100.00,ENE,67,0.0,0.0,95,0.00,,,0.00,,2013-01-23 06:59:00,
2013-01-23 01:04:00,38.8,37.4,-100.00,ENE,67,0.0,0.0,94,0.00,,,0.00,,2013-01-23 07:04:00,
2013-01-23 01:09:00,38.6,37.5,-100.00,ENE,67,0.0,0.0,95,0.00,,,0.00,,2013-01-23 07:09:00,
2013-01-23 01:14:00,38.5,37.4,-100.00,ENE,67,0.0,0.0,95,0.00,,,0.00,,2013-01-23 07:14:00,
2013-01-23 01:19:00,38.3,37.1,-100.00,ENE,67,0.0,0.0,95,0.00,,,0.00,,2013-01-23 07:19:00,
2013-01-23 01:24:00,38.6,37.7,-100.00,ENE,67,0.0,0.0,96,0.00,,,0.00,,2013-01-23 07:24:00,
2013-01-23 01:29:00,38.6,37.6,-100.00,ENE,67,0.0,0.0,95,0.00,,,0.00,,2013-01-23 07:29:00,
2013-01-23 01:35:00,38.6,37.5,-100.00,ENE,67,0.0,0.3,95,0.00,,,0.00,,2013-01-23 07:35:00,
2013-01-23 01:40:00,38.6,37.7,-100.00,ENE,67,0.0,0.3,96,0.00,,,0.00,,2013-01-23 07:40:00,
2013-01-23 01:45:00,38.5,37.5,-100.00,ENE,67,0.0,0.0,95,0.00,,,0.00,,2013-01-23 07:45:00,
2013-01-23 01:50:00,38.5,37.5,-100.00,ENE,67,0.0,0.0,95,0.00,,,0.00,,2013-01-23 07:50:00,
2013-01-23 01:55:00,38.5,37.6,-100.00,ENE,67,0.0,0.0,96,0.00,,,0.00,,2013-01-23 07:55:00,
2013-01-23 02:00:00,38.5,37.4,-100.00,ENE,67,0.0,0.0,95,0.00,,,0.00,,2013-01-23 08:00:00,
2013-01-23 02:05:00,38.4,37.3,-100.00,ENE,67,0.0,0.0,95,0.00,,,0.00,,2013-01-23 08:05:00,
2013-01-23 02:10:00,38.3,37.1,-100.00,ENE,67,0.0,0.0,95,0.00,,,0.00,,2013-01-23 08:10:00,
2013-01-23 02:15:00,38.3,37.3,-100.00,ENE,67,0.0,0.0,95,0.00,,,0.00,,2013-01-23 08:15:00,
2013-01-23 02:20:00,38.3,37.5,-100.00,ENE,67,0.0,0.0,96,0.00,,,0.00,,2013-01-23 08:20:00,
2013-01-23 02:25:00,38.3,37.4,-100.00,ENE,67,0.0,0.0,96,0.00,,,0.00,,2013-01-23 08:25:00,
2013-01-23 02:30:00,38.3,37.3,-100.00,ENE,67,0.0,0.0,95,0.00,,,0.00,,2013-01-23 08:30:00,
2013-01-23 02:35:00,38.3,37.6,-100.00,ENE,67,0.0,0.0,97,0.00,,,0.00,,2013-01-23 08:35:00,
2013-01-23 02:40:00,38.2,37.1,-100.00,ENE,67,0.0,0.0,95,0.00,,,0.00,,2013-01-23 08:40:00,
2013-01-23 02:45:00,38.2,37.2,-100.00,ENE,67,0.0,0.0,96,0.00,,,0.00,,2013-01-23 08:45:00,
2013-01-23 02:50:00,38.2,37.1,-100.00,ENE,67,0.0,0.0,95,0.00,,,0.00,,2013-01-23 08:50:00,
2013-01-23 02:55:00,38.2,37.1,-100.00,ENE,67,0.0,0.0,95,0.00,,,0.00,,2013-01-23 08:55:00,
2013-01-23 03:00:00,38.2,37.1,-100.00,ENE,67,0.0,0.0,95,0.00,,,0.00,,2013-01-23 09:00:00,
2013-01-23 03:05:00,38.1,37.0,-100.00,ENE,67,0.0,0.0,95,0.00,,,0.00,,2013-01-23 09:05:00,
2013-01-23 03:10:00,38.0,37.0,-100.00,ENE,67,0.0,0.0,96,0.00,,,0.00,,2013-01-23 09:10:00,
2013-01-23 03:15:00,38.0,37.1,-100.00,ENE,67,0.0,0.0,96,0.00,,,0.00,,2013-01-23 09:15:00,
2013-01-23 03:20:00,38.0,37.2,-100.00,ENE,67,0.0,0.0,96,0.00,,,0.00,,2013-01-23 09:20:00,
2013-01-23 03:26:00,37.8,37.0,-100.00,ENE,67,0.0,0.0,96,0.00,,,0.00,,2013-01-23 09:26:00,
2013-01-23 03:31:00,37.8,36.9,-100.00,ENE,67,0.0,0.0,96,0.00,,,0.00,,2013-01-23 09:31:00,
2013-01-23 03:36:00,38.0,37.0,-100.00,ENE,67,0.0,0.0,96,0.00,,,0.00,,2013-01-23 09:36:00,
2013-01-23 03:41:00,38.0,37.0,-100.00,ENE,67,0.0,0.0,96,0.00,,,0.00,,2013-01-23 09:41:00,
2013-01-23 03:46:00,37.8,36.8,-100.00,ENE,67,0.0,0.0,95,0.00,,,0.00,,2013-01-23 09:46:00,
2013-01-23 03:51:00,37.6,36.8,-100.00,ENE,67,0.0,0.0,96,0.00,,,0.00,,2013-01-23 09:51:00,
2013-01-23 03:56:00,37.4,36.4,-100.00,ENE,67,0.0,0.0,96,0.00,,,0.00,,2013-01-23 09:56:00,
2013-01-23 04:01:00,37.4,36.3,-100.00,ENE,67,0.0,0.0,95,0.00,,,0.00,,2013-01-23 10:01:00,
2013-01-23 04:06:00,37.5,36.4,-100.00,ENE,67,0.0,0.0,95,0.00,,,0.00,,2013-01-23 10:06:00,
2013-01-23 04:11:00,37.4,36.4,-100.00,ENE,67,0.0,0.0,96,0.00,,,0.00,,2013-01-23 10:11:00,
2013-01-23 04:17:00,37.4,36.3,-100.00,ENE,67,0.0,0.1,95,0.00,,,0.00,,2013-01-23 10:17:00,
2013-01-23 04:22:00,37.4,36.6,-100.00,ENE,67,0.0,0.1,96,0.00,,,0.00,,2013-01-23 10:22:00,
2013-01-23 04:27:00,37.3,36.3,-100.00,ENE,67,0.0,0.0,96,0.00,,,0.00,,2013-01-23 10:27:00,
2013-01-23 04:32:00,37.3,36.2,-100.00,ENE,67,0.0,0.0,95,0.00,,,0.00,,2013-01-23 10:32:00,
2013-01-23 04:37:00,37.3,36.5,-100.00,ENE,67,0.0,0.0,96,0.00,,,0.00,,2013-01-23 10:37:00,
2013-01-23 04:42:00,37.2,36.3,-100.00,ENE,67,0.0,0.0,96,0.00,,,0.00,,2013-01-23 10:42:00,
2013-01-23 04:47:00,37.3,36.4,-100.00,ENE,67,0.0,0.0,96,0.00,,,0.00,,2013-01-23 10:47:00,
2013-01-23 04:52:00,37.3,36.6,-100.00,ENE,67,0.0,0.0,97,0.00,,,0.00,,2013-01-23 10:52:00,
2013-01-23 04:58:00,37.2,36.3,-100.00,ENE,67,0.0,0.0,96,0.00,,,0.00,,2013-01-23 10:58:00,
2013-01-23 05:03:00,37.2,36.7,-100.00,ENE,67,0.0,0.0,98,0.00,,,0.00,,2013-01-23 11:03:00,
2013-01-23 05:08:00,37.1,36.2,-100.00,ENE,67,0.0,0.0,96,0.00,,,0.00,,2013-01-23 11:08:00,
2013-01-23 05:13:00,37.1,36.2,-100.00,ENE,67,0.0,0.0,96,0.00,,,0.00,,2013-01-23 11:13:00,
2013-01-23 05:18:00,37.1,36.2,-100.00,ENE,67,0.1,0.7,96,0.00,,,0.00,,2013-01-23 11:18:00,
2013-01-23 05:23:00,37.2,36.3,-100.00,ESE,112,0.2,0.9,96,0.00,,,0.00,,2013-01-23 11:23:00,
2013-01-23 05:28:00,37.2,36.3,-100.00,SE,135,0.1,0.9,96,0.00,,,0.00,,2013-01-23 11:28:00,
2013-01-23 05:33:00,37.1,36.3,-100.00,SE,135,0.0,0.0,96,0.00,,,0.00,,2013-01-23 11:33:00,
2013-01-23 05:38:00,37.1,36.3,-100.00,SE,135,0.0,0.0,96,0.00,,,0.00,,2013-01-23 11:38:00,
2013-01-23 05:43:00,37.0,36.0,-100.00,SE,135,0.0,0.0,96,0.00,,,0.00,,2013-01-23 11:43:00,
2013-01-23 05:48:00,37.1,36.3,-100.00,SE,135,0.0,0.0,96,0.00,,,0.00,,2013-01-23 11:48:00,
2013-01-23 05:53:00,37.0,36.0,-100.00,SE,135,0.0,0.0,96,0.00,,,0.00,,2013-01-23 11:53:00,
2013-01-23 05:58:00,37.0,36.1,-100.00,SE,135,0.0,0.0,96,0.00,,,0.00,,2013-01-23 11:58:00,
2013-01-23 06:03:00,37.0,36.0,-100.00,SE,135,0.0,0.0,96,0.00,,,0.00,,2013-01-23 12:03:00,
2013-01-23 06:08:00,36.8,36.0,-100.00,SE,135,0.0,0.0,96,0.00,,,0.00,,2013-01-23 12:08:00,
2013-01-23 06:13:00,37.0,36.2,-100.00,SE,135,0.0,0.0,96,0.00,,,0.00,,2013-01-23 12:13:00,
2013-01-23 06:18:00,37.1,36.4,-100.00,SE,135,0.0,0.0,97,0.00,,,0.00,,2013-01-23 12:18:00,
2013-01-23 06:23:00,37.0,36.3,-100.00,SE,135,0.0,0.0,97,0.00,,,0.00,,2013-01-23 12:23:00,
2013-01-23 06:28:00,37.2,36.3,-100.00,SE,135,0.0,0.0,96,0.00,,,0.00,,2013-01-23 12:28:00,
2013-01-23 06:33:00,37.2,36.4,-100.00,SE,135,0.0,0.0,96,0.00,,,0.00,,2013-01-23 12:33:00,
2013-01-23 06:38:00,37.1,36.5,-100.00,SE,135,0.0,0.0,97,0.00,,,0.00,,2013-01-23 12:38:00,
2013-01-23 06:43:00,37.1,36.4,-100.00,SE,135,0.0,0.0,97,0.00,,,0.00,,2013-01-23 12:43:00,
2013-01-23 06:49:00,37.0,36.3,-100.00,SE,135,0.0,0.0,97,0.00,,,0.00,,2013-01-23 12:49:00,
2013-01-23 06:54:00,37.0,36.3,-100.00,SE,135,0.0,0.0,97,0.00,,,0.00,,2013-01-23 12:54:00,
2013-01-23 06:59:00,36.8,36.3,-100.00,SE,135,0.0,0.0,97,0.00,,,0.00,,2013-01-23 12:59:00,
2013-01-23 07:04:00,37.2,36.7,-100.00,SE,135,0.0,0.0,98,0.00,,,0.00,,2013-01-23 13:04:00,
2013-01-23 07:09:00,37.5,36.9,-100.00,SE,135,0.0,0.7,97,0.00,,,0.00,,2013-01-23 13:09:00,
2013-01-23 07:14:00,38.1,37.5,-100.00,SE,135,0.3,1.0,97,0.00,,,0.00,,2013-01-23 13:14:00,
2013-01-23 07:19:00,38.6,38.0,-100.00,SE,135,0.1,0.9,97,0.00,,,0.00,,2013-01-23 13:19:00,
2013-01-23 07:24:00,39.3,38.7,-100.00,SE,135,0.1,0.6,97,0.00,,,0.00,,2013-01-23 13:24:00,
2013-01-23 07:29:00,40.0,39.0,-100.00,SE,135,0.0,0.0,96,0.00,,,0.00,,2013-01-23 13:29:00,
2013-01-23 07:34:00,40.3,39.3,-100.00,SE,135,0.0,0.0,95,0.00,,,0.00,,2013-01-23 13:34:00,
2013-01-23 07:39:00,40.9,39.8,-100.00,South,180,0.4,1.3,95,0.00,,,0.00,,2013-01-23 13:39:00,
2013-01-23 07:44:00,41.6,40.2,-100.00,WSW,247,0.4,1.3,94,0.00,,,0.00,,2013-01-23 13:44:00,
2013-01-23 07:49:00,41.8,40.1,-100.00,SW,225,0.3,1.6,93,0.00,,,0.00,,2013-01-23 13:49:00,
2013-01-23 07:54:00,42.7,40.9,-100.00,SW,225,0.6,1.6,93,0.00,,,0.00,,2013-01-23 13:54:00,
2013-01-23 08:00:00,43.5,41.7,-100.00,East,90,0.3,1.3,93,0.00,,,0.00,,2013-01-23 14:00:00,
2013-01-23 08:05:00,44.4,42.5,-100.00,SE,135,0.2,1.3,92,0.00,,,0.00,,2013-01-23 14:05:00,
2013-01-23 08:10:00,45.0,42.9,-100.00,WSW,247,0.0,0.3,92,0.00,,,0.00,,2013-01-23 14:10:00,
2013-01-23 08:15:00,45.7,43.2,-100.00,WSW,247,0.0,0.1,90,0.00,,,0.00,,2013-01-23 14:15:00,
2013-01-23 08:20:00,46.6,43.3,-100.00,WSW,247,0.1,1.2,88,0.00,,,0.00,,2013-01-23 14:20:00,
2013-01-23 08:25:00,47.3,43.9,-100.00,SE,135,0.7,1.8,87,0.00,,,0.00,,2013-01-23 14:25:00,
2013-01-23 08:30:00,47.9,43.8,-100.00,NW,315,1.1,1.8,85,0.00,,,0.00,,2013-01-23 14:30:00,
2013-01-23 08:35:00,48.5,44.3,-100.00,NNW,337,0.8,1.5,84,0.00,,,0.00,,2013-01-23 14:35:00,
2013-01-23 08:40:00,50.5,45.9,-100.00,NNW,337,0.6,1.3,84,0.00,,,0.00,,2013-01-23 14:40:00,
2013-01-23 08:45:00,51.9,45.9,-100.00,NE,45,0.2,1.0,79,0.00,,,0.00,,2013-01-23 14:45:00,
2013-01-23 08:50:00,53.6,46.1,-100.00,ENE,67,0.0,0.0,75,0.00,,,0.00,,2013-01-23 14:50:00,
2013-01-23 08:55:00,52.8,45.3,-100.00,North,0,0.3,1.5,75,0.00,,,0.00,,2013-01-23 14:55:00,
2013-01-23 09:00:00,53.6,46.7,-100.00,NE,45,0.9,1.6,77,0.00,,,0.00,,2013-01-23 15:00:00,
2013-01-23 09:05:00,54.4,46.3,-100.00,NE,45,0.7,1.6,73,0.00,,,0.00,,2013-01-23 15:05:00,
2013-01-23 09:10:00,55.7,46.6,-100.00,NNE,22,0.3,1.3,71,0.00,,,0.00,,2013-01-23 15:10:00,
2013-01-23 09:14:00,57.4,47.6,-100.00,ENE,67,0.4,1.3,69,0.00,,,0.00,,2013-01-23 15:14:00,
2013-01-23 09:19:00,58.4,47.1,-100.00,NNE,22,0.5,1.6,65,0.00,,,0.00,,2013-01-23 15:19:00,
2013-01-23 09:24:00,57.8,45.8,-100.00,NNE,22,1.2,2.5,64,0.00,,,0.00,,2013-01-23 15:24:00,
2013-01-23 09:29:00,58.4,46.2,-100.00,ENE,67,1.1,2.1,63,0.00,,,0.00,,2013-01-23 15:29:00,
2013-01-23 09:34:00,59.5,47.1,-100.00,ENE,67,1.4,3.2,63,0.00,,,0.00,,2013-01-23 15:34:00,
2013-01-23 09:39:00,59.2,46.5,-100.00,NE,45,2.1,3.5,62,0.00,,,0.00,,2013-01-23 15:39:00,
2013-01-23 09:44:00,59.7,45.0,-100.00,NE,45,2.1,4.1,57,0.00,,,0.00,,2013-01-23 15:44:00,
2013-01-23 09:49:00,59.0,44.0,-100.00,ENE,67,2.6,4.2,57,0.00,,,0.00,,2013-01-23 15:49:00,
2013-01-23 09:54:00,59.0,44.0,-100.00,East,90,2.4,4.9,57,0.00,,,0.00,,2013-01-23 15:54:00,
2013-01-23 09:59:00,59.1,44.4,-100.00,East,90,3.1,5.2,57,0.00,,,0.00,,2013-01-23 15:59:00,
2013-01-23 10:04:00,59.0,44.6,-100.00,East,90,3.4,5.9,58,0.00,,,0.00,,2013-01-23 16:04:00,
2013-01-23 10:09:00,59.8,45.3,-100.00,ENE,67,3.4,5.9,58,0.00,,,0.00,,2013-01-23 16:09:00,
2013-01-23 10:14:00,60.0,45.4,-100.00,ENE,67,2.9,6.0,58,0.00,,,0.00,,2013-01-23 16:14:00,
2013-01-23 10:19:00,60.1,45.2,-100.00,NE,45,2.9,6.0,57,0.00,,,0.00,,2013-01-23 16:19:00,
2013-01-23 10:24:00,60.0,44.0,-100.00,ENE,67,3.0,5.9,55,0.00,,,0.00,,2013-01-23 16:24:00,
2013-01-23 10:29:00,60.2,45.0,-100.00,ENE,67,3.0,5.9,56,0.00,,,0.00,,2013-01-23 16:29:00,
2013-01-23 10:34:00,60.3,45.2,-100.00,NE,45,3.3,5.9,56,0.00,,,0.00,,2013-01-23 16:34:00,
2013-01-23 10:40:00,60.5,45.6,-100.00,NE,45,3.7,6.4,57,0.00,,,0.00,,2013-01-23 16:40:00,
2013-01-23 10:45:00,60.0,45.3,-100.00,NE,45,4.4,7.0,57,0.00,,,0.00,,2013-01-23 16:45:00,
2013-01-23 10:50:00,60.7,45.8,-100.00,ENE,67,4.2,6.4,57,0.00,,,0.00,,2013-01-23 16:50:00,
2013-01-23 10:55:00,60.5,45.1,-100.00,NE,45,3.3,6.8,56,0.00,,,0.00,,2013-01-23 16:55:00,
2013-01-23 11:00:00,59.3,44.6,-100.00,NE,45,4.3,6.9,57,0.00,,,0.00,,2013-01-23 17:00:00,
2013-01-23 11:05:00,59.6,45.1,-100.00,NE,45,4.6,6.9,58,0.00,,,0.00,,2013-01-23 17:05:00,
2013-01-23 11:10:00,60.3,46.8,-100.00,ENE,67,4.0,6.8,60,0.00,,,0.00,,2013-01-23 17:10:00,
2013-01-23 11:15:00,59.9,45.6,-100.00,ENE,67,3.7,6.1,58,0.00,,,0.00,,2013-01-23 17:15:00,
2013-01-23 11:20:00,59.5,45.1,-100.00,NE,45,4.2,6.1,58,0.00,,,0.00,,2013-01-23 17:20:00,
2013-01-23 11:25:00,60.7,46.5,-100.00,NE,45,3.6,5.9,59,0.00,,,0.00,,2013-01-23 17:25:00,
2013-01-23 11:30:00,60.5,46.2,-100.00,NE,45,4.0,7.6,58,0.00,,,0.00,,2013-01-23 17:30:00,
2013-01-23 11:35:00,60.1,46.3,-100.00,NE,45,4.6,7.6,59,0.00,,,0.00,,2013-01-23 17:35:00,
2013-01-23 11:40:00,60.7,46.0,-100.00,NE,45,4.5,7.3,58,0.00,,,0.00,,2013-01-23 17:40:00,
2013-01-23 11:45:00,61.8,46.4,-100.00,ENE,67,3.7,7.3,56,0.00,,,0.00,,2013-01-23 17:45:00,
2013-01-23 11:50:00,61.5,46.4,-100.00,ENE,67,3.7,6.7,57,0.00,,,0.00,,2013-01-23 17:50:00,
2013-01-23 11:55:00,61.7,44.4,-100.00,ENE,67,4.2,9.0,52,0.00,,,0.00,,2013-01-23 17:55:00,
2013-01-23 12:00:00,61.6,43.9,-100.00,East,90,4.0,9.0,51,0.00,,,0.00,,2013-01-23 18:00:00,
2013-01-23 12:05:00,61.0,45.0,-100.00,East,90,4.6,7.7,55,0.00,,,0.00,,2013-01-23 18:05:00,
2013-01-23 12:10:00,62.2,44.6,-100.00,ENE,67,4.7,8.9,52,0.00,,,0.00,,2013-01-23 18:10:00,
2013-01-23 12:15:00,61.2,44.6,-100.00,ENE,67,4.4,7.1,53,0.00,,,0.00,,2013-01-23 18:15:00,
2013-01-23 12:20:00,61.6,44.9,-100.00,ENE,67,4.6,6.5,53,0.00,,,0.00,,2013-01-23 18:20:00,
2013-01-23 12:25:00,62.4,45.4,-100.00,East,90,4.2,7.6,53,0.00,,,0.00,,2013-01-23 18:25:00,
2013-01-23 12:30:00,61.8,44.7,-100.00,ENE,67,4.4,8.1,52,0.00,,,0.00,,2013-01-23 18:30:00,
2013-01-23 12:35:00,61.6,43.8,-100.00,ENE,67,4.7,7.9,51,0.00,,,0.00,,2013-01-23 18:35:00,
2013-01-23 12:40:00,62.6,45.3,-100.00,ENE,67,4.2,7.9,52,0.00,,,0.00,,2013-01-23 18:40:00,
2013-01-23 12:45:00,62.6,45.0,-100.00,ENE,67,4.3,7.8,52,0.00,,,0.00,,2013-01-23 18:45:00,
2013-01-23 12:51:00,61.8,44.0,-100.00,NE,45,5.3,8.0,51,0.00,,,0.00,,2013-01-23 18:51:00,
2013-01-23 12:56:00,61.5,44.2,-100.00,ENE,67,5.4,7.8,52,0.00,,,0.00,,2013-01-23 18:56:00,
2013-01-23 13:01:00,61.9,43.8,-100.00,ENE,67,5.0,7.5,50,0.00,,,0.00,,2013-01-23 19:01:00,
2013-01-23 13:06:00,63.0,45.7,-100.00,ENE,67,4.3,6.7,52,0.00,,,0.00,,2013-01-23 19:06:00,
2013-01-23 13:11:00,63.7,45.7,-100.00,East,90,3.7,7.5,51,0.00,,,0.00,,2013-01-23 19:11:00,
2013-01-23 13:16:00,63.4,45.7,-100.00,East,90,3.4,7.5,52,0.00,,,0.00,,2013-01-23 19:16:00,
2013-01-23 13:21:00,63.3,43.6,-100.00,East,90,3.4,5.9,48,0.00,,,0.00,,2013-01-23 19:21:00,
2013-01-23 13:26:00,64.0,46.7,-100.00,ENE,67,3.4,5.3,53,0.00,,,0.00,,2013-01-23 19:26:00,
2013-01-23 13:31:00,62.9,43.8,-100.00,East,90,3.8,6.9,49,0.00,,,0.00,,2013-01-23 19:31:00,
2013-01-23 13:36:00,64.1,46.0,-100.00,ENE,67,3.5,6.9,51,0.00,,,0.00,,2013-01-23 19:36:00,
2013-01-23 13:41:00,64.5,46.5,-100.00,ENE,67,2.8,5.2,51,0.00,,,0.00,,2013-01-23 19:41:00,
2013-01-23 13:46:00,64.1,46.3,-100.00,ENE,67,2.8,6.9,51,0.00,,,0.00,,2013-01-23 19:46:00,
2013-01-23 13:51:00,62.9,44.8,-100.00,ENE,67,4.2,8.4,51,0.00,,,0.00,,2013-01-23 19:51:00,
2013-01-23 13:56:00,62.5,45.9,-100.00,NE,45,5.8,9.0,54,0.00,,,0.00,,2013-01-23 19:56:00,
2013-01-23 14:01:00,62.7,46.9,-100.00,ENE,67,5.5,8.9,55,0.00,,,0.00,,2013-01-23 20:01:00,
2013-01-23 14:06:00,62.5,47.1,-100.00,ENE,67,4.9,7.1,56,0.00,,,0.00,,2013-01-23 20:06:00,
2013-01-23 14:11:00,62.3,47.8,-100.00,ENE,67,5.5,8.0,58,0.00,,,0.00,,2013-01-23 20:11:00,
2013-01-23 14:16:00,63.5,48.0,-100.00,ENE,67,5.2,8.0,56,0.00,,,0.00,,2013-01-23 20:16:00,
2013-01-23 14:21:00,63.8,47.9,-100.00,ENE,67,4.1,7.5,55,0.00,,,0.00,,2013-01-23 20:21:00,
2013-01-23 14:26:00,63.4,46.0,-100.00,ENE,67,3.4,6.3,52,0.00,,,0.00,,2013-01-23 20:26:00,
2013-01-23 14:31:00,63.4,47.5,-100.00,East,90,3.7,7.1,55,0.00,,,0.00,,2013-01-23 20:31:00,
2013-01-23 14:36:00,63.3,47.3,-100.00,ENE,67,4.1,7.4,55,0.00,,,0.00,,2013-01-23 20:36:00,
2013-01-23 14:41:00,62.5,47.0,-100.00,NE,45,4.9,10.2,56,0.00,,,0.00,,2013-01-23 20:41:00,
2013-01-23 14:46:00,62.7,46.9,-100.00,NE,45,5.8,10.2,55,0.00,,,0.00,,2013-01-23 20:46:00,
2013-01-23 14:52:00,63.8,48.3,-100.00,ENE,67,4.5,7.2,56,0.00,,,0.00,,2013-01-23 20:52:00,
2013-01-23 14:57:00,61.8,47.8,-100.00,NE,45,4.2,9.3,59,0.00,,,0.00,,2013-01-23 20:57:00,
2013-01-23 15:02:00,62.3,49.1,-100.00,NE,45,4.3,9.3,61,0.00,,,0.00,,2013-01-23 21:02:00,
2013-01-23 15:07:00,63.5,49.1,-100.00,ENE,67,2.8,5.7,58,0.00,,,0.00,,2013-01-23 21:07:00,
2013-01-23 15:12:00,63.2,48.8,-100.00,NE,45,2.8,5.2,58,0.00,,,0.00,,2013-01-23 21:12:00,
2013-01-23 15:17:00,62.8,48.8,-100.00,NE,45,3.6,6.4,59,0.00,,,0.00,,2013-01-23 21:17:00,
2013-01-23 15:22:00,62.3,48.5,-100.00,NE,45,4.1,6.3,60,0.00,,,0.00,,2013-01-23 21:22:00,
2013-01-23 15:27:00,62.7,48.6,-100.00,NE,45,4.1,6.3,59,0.00,,,0.00,,2013-01-23 21:27:00,
2013-01-23 15:32:00,61.9,48.1,-100.00,NE,45,4.9,8.0,60,0.00,,,0.00,,2013-01-23 21:32:00,
2013-01-23 15:37:00,62.4,48.1,-100.00,ENE,67,4.5,8.0,59,0.00,,,0.00,,2013-01-23 21:37:00,
2013-01-23 15:42:00,62.3,47.1,-100.00,ENE,67,3.6,5.8,57,0.00,,,0.00,,2013-01-23 21:42:00,
2013-01-23 15:47:00,62.7,48.5,-100.00,NE,45,3.3,5.6,59,0.00,,,0.00,,2013-01-23 21:47:00,
2013-01-23 15:52:00,62.7,47.4,-100.00,NE,45,3.3,5.7,56,0.00,,,0.00,,2013-01-23 21:52:00,
2013-01-23 15:57:00,62.6,47.3,-100.00,NE,45,3.5,6.2,56,0.00,,,0.00,,2013-01-23 21:57:00,
2013-01-23 16:02:00,62.4,46.8,-100.00,NE,45,3.4,6.2,56,0.00,,,0.00,,2013-01-23 22:02:00,
2013-01-23 16:07:00,62.2,45.8,-100.00,NE,45,3.7,5.9,54,0.00,,,0.00,,2013-01-23 22:07:00,
2013-01-23 16:12:00,62.3,47.5,-100.00,NE,45,3.4,5.6,58,0.00,,,0.00,,2013-01-23 22:12:00,
2013-01-23 16:17:00,62.3,46.8,-100.00,ENE,67,3.7,7.3,56,0.00,,,0.00,,2013-01-23 22:17:00,
2013-01-23 16:22:00,62.3,46.9,-100.00,ENE,67,3.5,7.3,56,0.00,,,0.00,,2013-01-23 22:22:00,
2013-01-23 16:27:00,61.6,47.2,-100.00,ENE,67,3.6,6.4,58,0.00,,,0.00,,2013-01-23 22:27:00,
2013-01-23 16:32:00,61.5,47.5,-100.00,ENE,67,4.1,7.4,59,0.00,,,0.00,,2013-01-23 22:32:00,
2013-01-23 16:37:00,61.4,48.3,-100.00,NE,45,3.3,4.8,61,0.00,,,0.00,,2013-01-23 22:37:00,
2013-01-23 16:42:00,61.4,47.3,-100.00,NE,45,3.1,5.1,59,0.00,,,0.00,,2013-01-23 22:42:00,
2013-01-23 16:47:00,61.4,47.3,-100.00,NE,45,2.8,5.1,59,0.00,,,0.00,,2013-01-23 22:47:00,
2013-01-23 16:53:00,60.7,46.2,-100.00,NE,45,3.1,5.2,58,0.00,,,0.00,,2013-01-23 22:53:00,
2013-01-23 16:58:00,60.3,47.3,-100.00,NE,45,3.5,5.8,61,0.00,,,0.00,,2013-01-23 22:58:00,
2013-01-23 17:03:00,60.1,47.0,-100.00,ENE,67,3.7,5.7,61,0.00,,,0.00,,2013-01-23 23:03:00,
2013-01-23 17:08:00,59.7,48.0,-100.00,NE,45,3.1,4.7,65,0.00,,,0.00,,2013-01-23 23:08:00,
2013-01-23 17:13:00,59.1,47.4,-100.00,ENE,67,3.2,5.2,64,0.00,,,0.00,,2013-01-23 23:13:00,
2013-01-23 17:18:00,58.9,48.0,-100.00,ENE,67,3.2,5.5,66,0.00,,,0.00,,2013-01-23 23:18:00,
2013-01-23 17:23:00,58.7,48.3,-100.00,ENE,67,2.7,5.5,68,0.00,,,0.00,,2013-01-23 23:23:00,
2013-01-23 17:28:00,58.4,49.1,-100.00,NE,45,2.7,4.1,70,0.00,,,0.00,,2013-01-23 23:28:00,
2013-01-23 17:33:00,58.2,49.4,-100.00,NE,45,2.7,4.0,72,0.00,,,0.00,,2013-01-23 23:33:00,
2013-01-23 17:38:00,58.0,49.2,-100.00,ENE,67,2.3,4.0,72,0.00,,,0.00,,2013-01-23 23:38:00,
2013-01-23 17:43:00,57.9,49.5,-100.00,ENE,67,2.4,4.3,73,0.00,,,0.00,,2013-01-23 23:43:00,
2013-01-23 17:48:00,57.7,49.3,-100.00,NE,45,2.8,4.6,73,0.00,,,0.00,,2013-01-23 23:48:00,
2013-01-23 17:53:00,57.4,50.4,-100.00,NE,45,2.6,4.7,77,0.00,,,0.00,,2013-01-23 23:53:00,
2013-01-23 17:58:00,57.3,49.9,-100.00,NE,45,2.7,5.0,75,0.00,,,0.00,,2013-01-23 23:58:00,
2013-01-23 18:03:00,57.2,50.2,-100.00,NE,45,2.0,5.0,77,0.00,,,0.00,,2013-01-24 00:03:00,
2013-01-23 18:08:00,57.0,50.4,-100.00,NE,45,1.9,3.3,78,0.00,,,0.00,,2013-01-24 00:08:00,
2013-01-23 18:13:00,57.0,50.0,-100.00,NE,45,2.2,3.9,77,0.00,,,0.00,,2013-01-24 00:13:00,
2013-01-23 18:18:00,57.0,49.7,-100.00,NE,45,2.1,3.9,76,0.00,,,0.00,,2013-01-24 00:18:00,
2013-01-23 18:23:00,57.1,49.4,-100.00,NE,45,2.0,3.5,75,0.00,,,0.00,,2013-01-24 00:23:00,
2013-01-23 18:28:00,57.4,49.9,-100.00,NE,45,2.5,5.0,75,0.00,,,0.00,,2013-01-24 00:28:00,
2013-01-23 18:33:00,57.3,49.0,-100.00,NE,45,3.0,5.0,73,0.00,,,0.00,,2013-01-24 00:33:00,
2013-01-23 18:38:00,57.2,49.5,-100.00,NE,45,2.8,4.3,75,0.00,,,0.00,,2013-01-24 00:38:00,
2013-01-23 18:44:00,57.2,49.4,-100.00,NE,45,2.7,4.4,74,0.00,,,0.00,,2013-01-24 00:44:00,
2013-01-23 18:49:00,57.3,49.8,-100.00,NE,45,2.8,5.9,75,0.00,,,0.00,,2013-01-24 00:49:00,
2013-01-23 18:54:00,57.3,49.9,-100.00,ENE,67,2.9,4.7,75,0.00,,,0.00,,2013-01-24 00:54:00,
2013-01-23 18:59:00,57.1,50.0,-100.00,NE,45,2.6,4.4,76,0.00,,,0.00,,2013-01-24 00:59:00,
2013-01-23 19:04:00,57.0,50.3,-100.00,ENE,67,2.7,4.3,78,0.00,,,0.00,,2013-01-24 01:04:00,
2013-01-23 19:09:00,57.0,50.6,-100.00,ENE,67,2.8,5.0,79,0.00,,,0.00,,2013-01-24 01:09:00,
2013-01-23 19:14:00,56.9,50.5,-100.00,ENE,67,2.6,4.6,79,0.00,,,0.00,,2013-01-24 01:14:00,
2013-01-23 19:19:00,57.0,50.3,-100.00,ENE,67,3.1,5.0,78,0.00,,,0.00,,2013-01-24 01:19:00,
2013-01-23 19:24:00,57.0,50.5,-100.00,ENE,67,3.3,5.5,78,0.00,,,0.00,,2013-01-24 01:24:00,
2013-01-23 19:29:00,56.8,50.7,-100.00,ENE,67,2.4,5.5,79,0.00,,,0.00,,2013-01-24 01:29:00,
2013-01-23 19:34:00,56.9,50.8,-100.00,ENE,67,2.6,5.3,79,0.00,,,0.00,,2013-01-24 01:34:00,
2013-01-23 19:39:00,56.9,50.7,-100.00,ENE,67,2.4,5.3,79,0.00,,,0.00,,2013-01-24 01:39:00,
2013-01-23 19:44:00,56.6,50.3,-100.00,ENE,67,2.8,4.9,78,0.00,,,0.00,,2013-01-24 01:44:00,
2013-01-23 19:49:00,56.5,50.8,-100.00,ENE,67,2.6,4.9,80,0.00,,,0.00,,2013-01-24 01:49:00,
2013-01-23 19:54:00,56.4,50.8,-100.00,ENE,67,2.4,4.3,81,0.00,,,0.00,,2013-01-24 01:54:00,
2013-01-23 19:59:00,56.3,50.8,-100.00,NE,45,2.2,4.7,81,0.00,,,0.00,,2013-01-24 01:59:00,
2013-01-23 20:04:00,56.2,50.9,-100.00,ENE,67,2.2,4.7,82,0.00,,,0.00,,2013-01-24 02:04:00,
2013-01-23 20:09:00,56.1,50.8,-100.00,ENE,67,2.3,3.9,82,0.00,,,0.00,,2013-01-24 02:09:00,
2013-01-23 20:14:00,55.8,50.6,-100.00,ENE,67,2.3,3.9,82,0.00,,,0.00,,2013-01-24 02:14:00,
2013-01-23 20:19:00,56.1,51.0,-100.00,ENE,67,2.8,5.2,82,0.00,,,0.00,,2013-01-24 02:19:00,
2013-01-23 20:24:00,56.1,50.3,-100.00,ENE,67,3.5,5.2,80,0.00,,,0.00,,2013-01-24 02:24:00,
2013-01-23 20:29:00,56.1,50.7,-100.00,ENE,67,3.1,5.1,81,0.00,,,0.00,,2013-01-24 02:29:00,
2013-01-23 20:34:00,56.3,50.7,-100.00,ENE,67,2.9,5.1,81,0.00,,,0.00,,2013-01-24 02:34:00,
2013-01-23 20:39:00,56.3,51.0,-100.00,ENE,67,2.9,4.9,82,0.00,,,0.00,,2013-01-24 02:39:00,
2013-01-23 20:44:00,56.4,50.8,-100.00,ENE,67,2.7,5.9,81,0.00,,,0.00,,2013-01-24 02:44:00,
2013-01-23 20:49:00,56.3,50.7,-100.00,ENE,67,2.9,5.9,81,0.00,,,0.00,,2013-01-24 02:49:00,
2013-01-23 20:54:00,56.4,50.8,-100.00,ENE,67,2.7,5.2,81,0.00,,,0.00,,2013-01-24 02:54:00,
2013-01-23 20:59:00,56.4,50.8,-100.00,ENE,67,2.5,5.2,81,0.00,,,0.00,,2013-01-24 02:59:00,
2013-01-23 21:04:00,56.3,49.9,-100.00,ENE,67,2.4,4.6,78,0.00,,,0.00,,2013-01-24 03:04:00,
2013-01-23 21:09:00,56.2,50.5,-100.00,ENE,67,2.7,4.3,80,0.00,,,0.00,,2013-01-24 03:09:00,
2013-01-23 21:14:00,56.3,50.3,-100.00,ENE,67,2.8,4.7,79,0.00,,,0.00,,2013-01-24 03:14:00,
2013-01-23 21:19:00,56.3,50.1,-100.00,ENE,67,2.8,4.4,79,0.00,,,0.00,,2013-01-24 03:19:00,
2013-01-23 21:24:00,56.3,50.2,-100.00,ENE,67,2.6,4.4,79,0.00,,,0.00,,2013-01-24 03:24:00,
2013-01-23 21:29:00,56.3,50.2,-100.00,ENE,67,2.4,4.7,79,0.00,,,0.00,,2013-01-24 03:29:00,
2013-01-23 21:34:00,56.1,50.0,-100.00,ENE,67,2.0,5.5,79,0.00,,,0.00,,2013-01-24 03:34:00,
2013-01-23 21:39:00,55.8,50.1,-100.00,ENE,67,1.8,5.5,80,0.00,,,0.00,,2013-01-24 03:39:00,
2013-01-23 21:45:00,55.8,50.1,-100.00,East,90,1.7,3.5,80,0.00,,,0.00,,2013-01-24 03:45:00,
2013-01-23 21:50:00,55.6,49.6,-100.00,ENE,67,1.9,3.5,79,0.00,,,0.00,,2013-01-24 03:50:00,
2013-01-23 21:55:00,55.5,50.1,-100.00,ENE,67,1.9,3.8,81,0.00,,,0.00,,2013-01-24 03:55:00,
2013-01-23 22:00:00,55.4,50.2,-100.00,ENE,67,1.8,3.8,82,0.00,,,0.00,,2013-01-24 04:00:00,
2013-01-23 22:05:00,55.3,50.9,-100.00,ENE,67,2.0,3.9,85,0.00,,,0.00,,2013-01-24 04:05:00,
2013-01-23 22:10:00,55.1,50.4,-100.00,ENE,67,1.6,3.9,84,0.00,,,0.00,,2013-01-24 04:10:00,
2013-01-23 22:15:00,55.0,50.6,-100.00,ENE,67,1.3,2.6,84,0.00,,,0.00,,2013-01-24 04:15:00,
2013-01-23 22:20:00,55.0,50.7,-100.00,East,90,1.2,2.9,85,0.00,,,0.00,,2013-01-24 04:20:00,
2013-01-23 22:25:00,54.6,50.5,-100.00,East,90,0.9,2.9,85,0.00,,,0.00,,2013-01-24 04:25:00,
2013-01-23 22:30:00,54.7,50.8,-100.00,East,90,0.9,2.1,86,0.00,,,0.00,,2013-01-24 04:30:00,
2013-01-23 22:35:00,54.7,50.8,-100.00,East,90,1.3,2.4,86,0.00,,,0.00,,2013-01-24 04:35:00,
2013-01-23 22:40:00,54.6,51.0,-100.00,ENE,67,1.4,2.4,87,0.00,,,0.00,,2013-01-24 04:40:00,
2013-01-23 22:45:00,54.4,50.6,-100.00,ENE,67,1.4,2.3,86,0.00,,,0.00,,2013-01-24 04:45:00,
2013-01-23 22:50:00,54.7,50.9,-100.00,East,90,1.1,2.8,86,0.00,,,0.00,,2013-01-24 04:50:00,
2013-01-23 22:55:00,54.5,50.6,-100.00,East,90,1.0,2.8,86,0.00,,,0.00,,2013-01-24 04:55:00,
2013-01-23 23:01:00,54.3,50.0,-100.00,ENE,67,1.0,2.1,85,0.00,,,0.00,,2013-01-24 05:01:00,
2013-01-23 23:02:00,54.3,50.4,-100.00,ENE,67,1.0,2.1,86,0.00,,,0.00,,2013-01-24 05:02:00,
2013-01-23 23:07:00,54.4,50.4,-100.00,ESE,112,1.0,2.8,86,0.00,,,0.00,,2013-01-24 05:07:00,
2013-01-23 23:12:00,54.3,50.5,-100.00,SE,135,0.8,1.8,86,0.00,,,0.00,,2013-01-24 05:12:00,
2013-01-23 23:17:00,54.0,50.2,-100.00,SE,135,0.4,1.5,86,0.00,,,0.00,,2013-01-24 05:17:00,
2013-01-23 23:22:00,53.8,50.0,-100.00,SE,135,0.3,1.3,86,0.00,,,0.00,,2013-01-24 05:22:00,
2013-01-23 23:27:00,53.7,50.1,-100.00,SE,135,0.2,1.3,87,0.00,,,0.00,,2013-01-24 05:27:00,
2013-01-23 23:32:00,53.6,50.0,-100.00,ESE,112,0.0,0.6,87,0.00,,,0.00,,2013-01-24 05:32:00,
2013-01-23 23:37:00,53.3,50.0,-100.00,ESE,112,0.1,0.7,88,0.00,,,0.00,,2013-01-24 05:37:00,
2013-01-23 23:42:00,53.0,49.5,-100.00,East,90,0.4,1.3,87,0.00,,,0.00,,2013-01-24 05:42:00,
2013-01-23 23:48:00,52.6,49.3,-100.00,East,90,0.7,1.7,88,0.00,,,0.00,,2013-01-24 05:48:00,
2013-01-23 23:53:00,52.4,49.0,-100.00,East,90,0.9,1.7,88,0.00,,,0.00,,2013-01-24 05:53:00,
2013-01-23 23:58:00,52.7,49.8,-100.00,ENE,67,1.2,3.2,89,0.00,,,0.00,,2013-01-24 05:58:00,